TimeCDT,TemperatureF,Dew PointF,Humidity,Sea Level PressureIn,VisibilityMPH,Wind Direction,Wind SpeedMPH,Gust SpeedMPH,PrecipitationIn,Events,Conditions,WindDirDegrees,DateUTC
12:51 AM,55.9,46.9,72,29.89,10.0,West,6.9,-,N/A,,Scattered Clouds,260,2013-07-28 05:51:00
1:51 AM,55.0,48.0,77,29.88,10.0,West,8.1,-,N/A,,Mostly Cloudy,260,2013-07-28 06:51:00
2:51 AM,55.0,48.0,77,29.88,10.0,West,10.4,-,N/A,,Overcast,260,2013-07-28 07:51:00
3:51 AM,55.0,48.0,77,29.86,10.0,West,10.4,-,N/A,,Mostly Cloudy,260,2013-07-28 08:51:00
4:51 AM,55.0,48.0,77,29.87,10.0,West,8.1,-,N/A,,Overcast,260,2013-07-28 09:51:00
5:51 AM,54.0,50.0,86,29.89,10.0,West,8.1,-,0.00,Rain,Light Rain,260,2013-07-28 10:51:00
6:51 AM,54.0,50.0,86,29.89,10.0,WSW,8.1,-,0.00,,Mostly Cloudy,250,2013-07-28 11:51:00
7:51 AM,55.9,51.1,84,29.90,10.0,West,9.2,-,N/A,,Overcast,270,2013-07-28 12:51:00
8:51 AM,59.0,51.1,75,29.90,10.0,West,10.4,-,N/A,,Mostly Cloudy,280,2013-07-28 13:51:00
9:51 AM,61.0,48.9,64,29.91,10.0,WNW,9.2,20.7,N/A,,Mostly Cloudy,300,2013-07-28 14:51:00
10:09 AM,60.8,48.2,63,29.91,10.0,WNW,12.7,-,N/A,,Overcast,300,2013-07-28 15:09:00
10:51 AM,60.1,51.1,72,29.91,10.0,WNW,6.9,-,N/A,,Mostly Cloudy,300,2013-07-28 15:51:00
11:51 AM,61.0,48.9,64,29.93,10.0,West,11.5,-,N/A,,Mostly Cloudy,280,2013-07-28 16:51:00
12:51 PM,64.0,50.0,60,29.93,10.0,WNW,15.0,19.6,N/A,,Mostly Cloudy,290,2013-07-28 17:51:00
1:51 PM,64.9,48.0,54,29.93,10.0,WNW,10.4,-,N/A,,Mostly Cloudy,300,2013-07-28 18:51:00
2:51 PM,68.0,46.9,47,29.94,10.0,West,12.7,21.9,N/A,,Mostly Cloudy,260,2013-07-28 19:51:00
3:51 PM,66.9,46.0,47,29.95,10.0,WNW,11.5,-,N/A,,Mostly Cloudy,300,2013-07-28 20:51:00
4:51 PM,66.0,46.9,50,29.96,10.0,WNW,11.5,-,N/A,,Mostly Cloudy,290,2013-07-28 21:51:00
5:51 PM,68.0,46.9,47,29.96,10.0,WNW,9.2,-,N/A,,Scattered Clouds,290,2013-07-28 22:51:00
6:51 PM,68.0,48.0,49,29.97,10.0,WNW,10.4,-,N/A,,Scattered Clouds,300,2013-07-28 23:51:00
7:51 PM,66.0,48.0,52,29.98,10.0,West,11.5,-,N/A,,Scattered Clouds,280,2013-07-29 00:51:00
8:51 PM,62.1,50.0,65,29.99,10.0,West,5.8,-,N/A,,Scattered Clouds,260,2013-07-29 01:51:00
9:51 PM,61.0,51.1,70,30.01,10.0,West,4.6,-,N/A,,Partly Cloudy,260,2013-07-29 02:51:00
10:51 PM,60.1,51.1,72,30.01,10.0,WSW,4.6,-,N/A,,Mostly Cloudy,250,2013-07-29 03:51:00
11:51 PM,62.1,51.1,67,30.01,10.0,West,5.8,-,N/A,,Overcast,280,2013-07-29 04:51:00